Location: Ferchesar
(52.6477°N, 12.4298°E)
Time: 06:17:42
(UTC+01:00)

Vanguard 1 - All Passes

Search period start: 07 December 2021 00:00
Search period end: 17 December 2021 00:00
Orbit: 653 x 3830 km, 34.3° (Epoch: 06 December)

Date Brightness Start Highest point End Pass type
(mag) Time Alt. Az. Time Alt. Az. Time Alt. Az.
07 Dec - 00:16:18 10° SW 00:36:24 44° SSE 00:55:22 10° ESE visible
07 Dec - 02:39:17 10° WSW 03:00:03 43° SSW 03:16:20 10° SE visible
07 Dec - 05:05:46 10° W 05:21:40 26° SW 05:33:31 10° S visible
07 Dec - 20:05:43 10° SSE 20:13:22 13° SE 20:21:45 10° ESE visible
07 Dec - 22:17:03 10° SSW 22:33:54 33° SSE 22:52:31 10° E visible
08 Dec - 00:36:44 10° WSW 00:57:08 45° S 01:16:10 10° ESE visible
08 Dec - 03:00:19 10° W 03:20:38 40° SSW 03:36:35 10° SE visible
08 Dec - 05:27:45 10° W 05:41:41 22° SW 05:52:29 10° S visible
08 Dec - 20:22:14 10° SSE 20:33:11 18° SE 20:45:47 10° E visible
08 Dec - 22:36:46 10° SSW 22:54:20 37° SSE 23:13:47 10° E visible
09 Dec - 00:57:20 10° WSW 01:17:54 46° S 01:36:52 10° ESE visible
09 Dec - 03:21:29 10° W 03:41:08 37° SSW 03:56:36 10° SSE visible
09 Dec - 05:50:25 10° W 06:01:33 17° SW 06:10:42 10° SSW visible
09 Dec - 20:40:20 10° S 20:53:08 23° SE 21:08:23 10° E visible
09 Dec - 22:56:45 10° SW 23:14:52 41° SSE 23:34:53 10° E visible
10 Dec - 01:18:04 10° WSW 01:38:38 45° S 01:57:26 10° ESE visible
10 Dec - 03:42:48 10° W 04:01:29 33° SSW 04:16:23 10° SSE visible
10 Dec - 06:14:42 10° WSW 06:21:18 12° WSW 06:27:12 10° SW visible
10 Dec - 20:59:12 10° S 21:13:12 28° SE 21:30:20 10° E visible
10 Dec - 23:16:59 10° SW 23:35:30 44° SSE 23:55:53 10° ESE visible
11 Dec - 01:38:55 10° WSW 01:59:21 44° SSW 02:17:52 10° SE visible
11 Dec - 04:04:20 10° W 04:21:43 29° SW 04:35:49 10° SSE visible
11 Dec - 19:08:40 10° SE 19:13:41 12° ESE 19:19:12 10° ESE visible
11 Dec - 21:18:34 10° SSW 21:33:25 32° SSE 21:51:55 10° E visible
11 Dec - 23:37:23 10° SW 23:56:12 45° S 00:16:44 10° ESE visible
12 Dec - 01:59:53 10° WSW 02:20:00 41° SSW 02:38:08 10° SE visible
12 Dec - 04:26:13 10° W 04:41:49 24° SW 04:54:48 10° S visible
12 Dec - 19:24:36 10° SSE 19:33:25 16° SE 19:44:01 10° E visible
12 Dec - 21:38:17 10° SSW 21:53:45 36° SSE 22:13:16 10° E visible
12 Dec - 23:57:56 10° WSW 00:16:57 46° S 00:37:29 10° ESE visible
13 Dec - 02:20:58 10° W 02:40:33 38° SSW 02:58:10 10° SE visible
13 Dec - 04:48:41 10° W 05:01:47 19° SW 05:13:03 10° SSW visible
13 Dec - 19:42:37 10° S 19:53:15 21° SE 20:06:51 10° E visible
13 Dec - 21:58:17 10° SW 22:14:13 40° SSE 22:34:27 10° E visible
14 Dec - 00:18:37 10° WSW 00:37:42 45° S 00:58:07 10° ESE visible
14 Dec - 02:42:13 10° W 03:01:00 34° SSW 03:17:56 10° SSE visible
14 Dec - 05:12:22 10° W 05:21:36 14° SW 05:29:58 10° SSW visible
14 Dec - 20:01:29 10° S 20:13:15 26° SE 20:28:56 10° E visible
14 Dec - 22:18:30 10° SW 22:34:48 43° SSE 22:55:31 10° ESE visible
15 Dec - 00:39:24 10° WSW 00:58:26 44° S 01:18:35 10° SE visible
15 Dec - 03:03:40 10° W 03:21:19 30° SW 03:37:21 10° SSE visible
15 Dec - 20:20:51 10° SSW 20:33:24 30° SE 20:50:36 10° E visible
15 Dec - 22:38:52 10° SW 22:55:28 44° S 23:16:26 10° ESE visible
16 Dec - 01:00:18 10° WSW 01:19:08 41° SSW 01:38:51 10° SE visible
16 Dec - 03:25:27 10° W 03:41:31 25° SW 03:56:16 10° S visible
16 Dec - 18:27:58 10° SSE 18:34:09 14° SE 18:41:34 10° ESE visible
16 Dec - 20:40:35 10° SSW 20:53:40 34° SSE 21:12:01 10° E visible
